Temp_Advection
nan nan nan nan nan nan nan nan nan nan nan nan nan nan nan nan nan nan nan nan nan nan nan nan nan nan nan nan nan nan nan nan nan nan nan nan nan nan nan nan nan nan nan
nan 0 0 -0 -0 -0 -0 -0 -0 -0 -0 -0 0 -0 -0 0 0 0 -0 -0 0 0 -0 -0 0 0 0 0 -0 -0 -0 -1 0 -1 -1 1 -0 -3 -1 -0 -0 0 nan
nan 0 0 0 0 0 0 0 -0 -0 -0 0 -0 -0 -0 -0 -0 -0 0 0 0 -0 -0 0 -0 0 0 -1 -0 0 -0 -0 0 -0 -0 1 0 0 -2 -3 -1 0 nan
nan 0 0 0 0 0 0 0 0 0 -0 -0 -0 -0 0 -0 -0 0 0 0 0 0 0 0 -0 -0 -0 -0 -0 -0 0 1 2 0 -2 -1 1 1 1 -0 -1 -1 nan
nan 0 0 0 0 0 0 -0 0 0 0 0 0 -0 -0 0 0 0 0 0 0 0 -0 -0 -0 -0 -0 -0 -0 0 2 2 1 0 -0 -0 -0 -0 -0 1 0 -1 nan
nan 0 0 0 0 0 0 0 0 0 0 0 0 -0 0 0 0 0 0 -0 -0 -0 -0 -0 -0 -0 -0 1 0 0 1 1 0 0 -0 -1 -0 -0 -0 0 0 0 nan
nan 0 0 0 0 0 0 0 0 0 0 0 0 0 0 0 0 -0 -0 0 0 0 -0 -0 0 0 -0 -0 0 0 0 0 0 0 0 -0 0 0 -0 -0 0 0 nan
nan 0 0 0 0 0 0 0 0 0 0 0 0 0 0 0 -0 0 0 -0 -0 0 0 1 0 -0 -0 -0 -1 -0 -0 -0 0 1 1 1 1 -0 -0 -0 0 0 nan
nan 0 0 0 0 0 0 0 0 0 0 0 0 1 0 -0 -1 -1 -0 0 0 -0 -0 0 0 0 -0 -0 -0 0 0 1 -0 -0 0 0 0 0 0 2 3 4 nan
nan -1 0 0 0 -0 -0 -0 -0 -0 -0 -0 -0 -0 -0 -1 -1 -2 -1 -0 -0 -0 -1 -0 -0 -0 -1 -1 -0 0 1 1 1 1 2 3 2 3 2 -1 -2 0 nan
nan 0 0 0 -0 -1 -0 -0 -1 -0 -0 -0 -0 -0 -0 -0 -0 -1 -1 -1 -0 0 -0 -0 -0 -1 -2 -3 -2 0 1 2 2 2 2 1 0 -0 -1 -0 -0 0 nan
nan 0 -0 -0 -0 0 -0 -0 -0 -0 -0 -0 -0 -0 -0 -0 -1 -1 -2 -1 -1 -1 -1 -1 -2 -2 -2 -2 -2 -1 0 1 1 1 1 0 -0 -0 -1 -0 -0 -0 nan
nan 0 -0 -0 -0 -0 -0 -0 -0 -0 -0 -0 -0 -1 -1 -0 -1 -1 -1 -1 -1 -1 -1 -1 -1 -1 -1 -1 -1 -0 0 0 -0 -0 -1 -1 -1 -0 -0 -0 -0 -0 nan
nan -0 0 0 -0 -0 -0 -1 -1 -1 -1 -1 -1 -1 -0 -0 -1 -0 -0 -0 -0 -1 -0 -0 -0 -0 -0 -0 -0 -0 -0 -0 -0 -1 -1 -1 -0 0 -0 -0 -0 -0 nan
nan 0 0 -0 -0 -0 -1 -1 -1 -1 -0 -0 -0 0 -0 -1 -1 0 0 -0 -0 -0 0 0 0 -0 -0 -0 -0 -0 -1 -0 -0 -0 -0 -0 -0 -0 -1 -1 -0 -0 nan
nan -0 -0 -0 -0 -0 -0 -0 -0 -0 -0 -0 -0 -0 -1 -0 0 0 -0 -0 -0 0 0 -0 -1 -1 -1 -0 -0 -1 -0 -0 -1 -0 -0 -0 -1 -0 -0 -0 -0 -0 nan
nan -0 -0 -0 -0 -0 -0 -0 -0 -0 -0 -0 -0 -0 -0 -0 -0 -0 -0 -0 -0 0 -0 -1 -1 -1 -1 -1 -1 -1 -1 -1 -0 -0 -0 -0 -0 -0 -0 -0 -1 -0 nan
nan -0 -0 -0 -0 -0 -0 -0 -0 -0 -0 -0 -0 -0 -0 -0 -0 -0 -0 -0 -0 -0 -1 -1 -1 -1 -1 -0 -0 -0 -0 -0 -0 -0 -0 -0 -0 -0 -0 -0 -0 -0 nan
nan -0 -0 -0 -0 -0 -0 -0 -0 -0 -0 -0 -0 -0 -0 -0 -0 -0 -0 -0 -0 -0 -1 -1 -0 -0 -0 -0 -0 -0 -0 -0 -0 -0 -0 -0 -0 -0 -0 -0 -0 -0 nan
nan -0 -0 -0 -0 -0 -0 -0 -0 -0 -0 -0 -0 -0 -0 -0 -0 -0 -0 -0 -0 -0 -0 -0 -0 -0 -0 -0 -0 -0 -0 -0 -0 -0 -0 -0 -0 -0 -0 -0 -0 -0 nan
nan -0 -0 -0 -0 -0 -0 -0 -0 -0 -0 -0 -0 -0 -0 -0 -0 -0 -0 -0 -0 -0 -0 -0 -0 -0 -0 -0 -0 -0 -0 -0 -0 -0 -0 -0 -0 -0 -0 -0 -0 -0 nan
nan -0 -0 -0 -0 -0 -0 -0 -0 -0 -0 -0 -0 -0 -0 -0 -0 -0 -0 -0 -0 -0 -0 -0 -0 -0 -0 -0 -0 -0 -0 -0 -0 -0 -0 -0 -0 -0 -0 -0 -0 -0 nan
nan -0 -0 -0 -0 -0 -0 -0 -0 -0 -0 -0 -0 -0 -0 -0 -0 -0 -0 -0 -0 -0 -0 -0 -0 -0 -0 -0 -0 -0 -0 -0 -0 -0 -0 -0 -0 -0 -0 -0 -0 -0 nan
nan -0 -0 -0 -0 -0 -0 -0 -0 -0 -0 -0 -0 -0 -0 -0 -0 -0 -0 -0 -0 -0 -0 -0 -0 -0 -0 -0 -0 -0 -0 -0 -0 -0 -0 -0 -0 -0 -0 -0 -0 -0 nan
nan -0 -0 -0 -0 -0 -0 -0 -0 -0 -0 -0 -0 -0 -0 -0 -0 -0 -0 -0 -0 -0 -0 -0 -0 -0 -0 -0 -0 -0 -0 -0 -0 -0 -0 -0 -0 -0 -0 -0 -0 -0 nan
nan nan nan nan nan nan nan nan nan nan nan nan nan nan nan nan nan nan nan nan nan nan nan nan nan nan nan nan nan nan nan nan nan nan nan nan nan nan nan nan nan nan nan
Wind_Speed
12 11 10 10 11 11 11 11 9 8 12 14 17 19 22 28 32 28 30 32 43 48 47 45 49 48 43 48 48 43 43 42 46 46 45 46 50 47 42 40 40 41 45
12 10 10 9 9 9 10 10 11 11 11 13 16 15 17 22 28 27 26 27 30 40 40 43 45 43 47 46 45 55 47 45 49 53 51 51 45 54 53 51 49 48 49
9 7 7 7 6 7 7 7 9 10 10 11 15 16 17 20 23 22 25 27 26 28 33 36 39 41 42 43 42 43 47 52 49 53 60 53 48 45 49 58 58 57 58
9 7 7 7 5 4 6 7 7 8 10 12 14 16 18 20 23 25 26 28 30 33 35 38 40 42 43 42 45 50 52 53 52 48 52 60 55 50 45 48 49 48 53
12 10 10 10 10 9 8 9 9 10 11 12 14 16 19 23 26 29 32 36 38 38 39 41 44 46 47 48 48 51 53 49 48 46 47 47 49 47 47 47 47 52 54
10 9 7 7 9 12 12 12 12 12 13 15 17 20 22 26 32 33 35 37 36 35 38 41 44 47 49 50 51 52 52 48 47 47 50 50 50 50 51 49 51 49 51
6 0 4 5 6 8 10 12 13 15 16 17 19 20 22 26 30 30 32 33 34 37 39 40 43 44 44 44 44 45 48 51 56 60 60 56 54 54 52 52 53 54 59
5 6 4 4 5 6 7 9 9 10 13 15 17 19 20 23 27 29 31 31 32 34 38 42 45 46 46 47 50 52 53 52 52 52 56 61 63 63 59 56 53 53 56
10 8 6 5 4 3 3 3 5 7 10 12 14 16 17 20 26 29 32 31 30 30 32 33 40 44 47 50 51 49 50 47 52 55 56 55 59 64 65 66 64 56 39
12 11 9 9 7 6 5 4 5 3 3 2 2 4 6 11 13 16 17 16 17 19 22 28 34 37 40 42 45 48 45 41 42 45 47 45 44 45 37 33 37 37 29
12 11 11 10 10 9 9 9 8 8 8 7 8 8 9 11 12 11 7 5 6 8 10 13 17 22 26 31 36 38 35 30 26 24 25 21 14 10 14 12 7 10 14
14 14 15 15 15 13 12 11 10 10 9 11 12 12 15 17 21 22 20 16 12 9 8 11 14 19 18 14 11 10 10 9 8 6 5 5 6 9 10 10 12 10 7
14 18 18 18 20 19 19 19 18 17 18 19 19 21 22 22 22 23 23 22 20 17 17 17 17 18 17 16 16 12 9 12 13 14 15 14 15 15 13 14 15 13 11
16 19 21 22 23 23 23 23 23 24 24 23 23 23 24 24 24 22 22 21 21 21 19 17 18 18 19 19 18 19 18 16 15 16 16 14 12 9 9 10 10 10 9
17 19 20 21 21 22 22 22 22 22 19 20 20 18 18 20 18 16 15 16 16 15 15 14 15 16 17 18 17 16 15 14 13 12 9 8 7 9 11 10 9 7 6
15 17 18 18 18 17 17 17 17 16 14 14 14 14 14 13 10 11 11 11 10 8 6 9 12 13 13 12 11 11 10 9 9 10 10 10 9 8 8 8 8 8 8
12 14 14 13 13 12 12 11 11 11 10 9 8 8 8 8 8 8 8 6 5 5 6 9 10 10 10 11 10 10 11 12 10 9 8 8 8 8 8 9 9 9 9
11 11 11 10 9 9 8 8 7 6 6 6 6 6 5 5 5 5 4 4 4 5 6 7 8 9 10 10 10 11 11 10 10 10 10 9 9 9 8 9 9 9 9
7 8 8 8 7 6 6 5 4 4 4 4 5 4 4 5 4 3 3 2 4 6 8 8 8 9 9 9 9 10 10 10 10 10 9 9 8 8 8 8 8 8 8
7 8 7 6 5 4 4 3 3 4 4 4 4 6 7 6 3 4 6 7 8 8 8 8 8 8 8 8 9 9 9 9 9 9 9 9 9 9 8 8 8 8 8
6 5 5 4 3 3 4 4 4 5 5 5 6 7 7 4 5 7 7 8 8 8 7 7 7 6 6 7 7 7 8 8 8 9 9 9 9 8 8 8 8 8 8
5 4 3 3 4 4 3 4 4 4 5 5 6 6 6 5 6 6 6 6 6 6 6 6 6 6 6 6 7 8 8 8 8 8 8 8 8 8 8 8 8 8 8
4 3 3 3 2 3 3 3 3 3 4 4 4 4 4 5 5 5 4 5 5 5 5 5 6 6 6 7 8 8 8 8 9 9 10 9 9 9 8 8 8 8 9
3 2 2 2 2 2 2 2 2 2 3 3 3 4 4 4 5 4 4 5 5 5 6 6 6 7 8 8 8 9 9 9 10 10 10 10 9 9 9 8 8 9 9
2 1 1 1 1 1 2 2 2 3 4 5 5 5 6 6 6 7 7 7 6 7 7 7 7 8 9 9 10 10 11 11 11 11 10 10 9 9 8 8 8 8 9
2 1 1 2 2 2 3 4 4 5 6 6 7 7 7 8 8 8 8 8 8 8 8 8 9 9 9 10 10 10 11 10 11 10 10 10 9 9 8 8 8 8 9
Wind_Direction
181 190 189 193 197 205 207 209 211 216 214 223 217 225 223 224 229 236 232 238 224 227 227 229 234 240 247 247 250 251 253 257 256 261 264 270 273 273 273 273 274 269 268
166 174 183 194 205 213 217 214 214 217 218 217 221 226 227 224 227 237 237 235 244 230 236 238 245 243 248 257 254 248 248 252 258 260 261 272 268 275 275 275 277 275 273
166 170 176 183 194 212 218 226 231 229 230 226 222 225 226 227 232 239 243 246 250 244 246 251 251 252 257 256 256 240 246 247 259 261 263 270 270 269 274 279 278 278 278
163 181 209 218 229 228 226 230 236 240 238 238 241 243 244 242 243 248 250 253 256 257 257 257 257 257 257 259 257 252 257 259 264 261 265 272 270 269 267 270 271 275 278
175 193 213 220 232 234 232 231 241 248 250 252 251 251 254 255 258 258 260 263 263 264 265 264 261 259 259 259 258 260 261 259 259 257 257 260 266 269 266 269 270 277 277
146 165 197 220 225 227 230 231 231 242 251 259 264 263 261 261 254 253 255 259 262 263 265 267 268 268 268 268 268 267 263 255 257 258 259 260 262 262 266 265 267 268 270
85 168 187 198 206 213 223 228 234 241 247 251 255 260 260 260 265 267 269 268 268 268 272 275 275 273 274 275 274 271 269 267 264 264 261 260 263 262 261 260 260 263 266
140 168 177 196 204 217 222 229 234 239 241 241 243 246 248 252 257 260 264 266 267 269 270 272 274 274 275 274 277 277 277 278 275 272 267 266 264 261 258 259 259 260 259
106 103 115 118 126 153 181 192 212 233 244 249 251 254 262 268 269 269 268 271 273 270 267 268 265 264 266 269 268 268 272 265 263 269 270 265 263 263 264 262 261 259 262
68 65 67 72 80 87 94 90 81 64 56 31 345 310 303 297 308 308 301 293 287 283 276 271 270 269 269 268 266 265 266 262 258 258 259 260 259 262 273 282 276 274 268
68 68 68 72 75 75 73 71 70 69 63 57 47 36 17 13 16 16 4 333 294 278 274 277 285 293 296 286 276 273 275 268 258 258 261 262 263 271 282 293 270 254 245
65 71 69 71 79 87 85 89 90 86 77 69 61 53 46 41 39 38 41 43 31 6 2 357 349 347 341 329 313 307 283 246 237 211 168 101 90 79 74 69 71 76 93
73 75 75 75 76 78 80 82 84 87 85 80 76 72 68 64 59 53 50 50 51 50 51 47 43 44 48 51 56 66 88 100 103 100 88 81 68 66 67 65 66 67 71
85 83 84 81 80 79 79 77 77 75 75 75 73 70 69 66 62 59 58 59 60 64 70 67 67 67 69 75 81 76 73 70 69 69 70 68 64 54 41 41 33 27 27
85 82 77 75 75 75 75 75 73 73 72 73 69 66 62 60 57 57 57 59 59 63 71 77 77 74 73 71 70 71 71 70 68 68 64 57 44 31 25 31 36 41 46
83 79 74 70 67 66 65 64 61 61 57 58 62 55 54 58 55 54 52 53 58 62 64 67 68 66 62 59 56 52 52 51 52 45 44 47 50 51 53 51 53 55 54
80 81 78 75 72 70 67 64 58 52 41 35 45 52 54 52 51 53 52 43 47 53 35 41 38 40 49 55 57 57 60 60 56 62 59 61 59 51 45 44 46 43 41
71 76 73 70 65 58 54 48 46 43 41 40 38 30 16 22 29 24 5 12 339 343 20 40 48 53 55 54 54 54 53 51 52 50 52 55 54 50 43 39 38 36 33
60 66 66 61 58 51 46 37 29 22 15 16 19 11 23 32 20 349 351 358 51 60 65 61 60 57 55 52 52 49 45 44 44 44 46 45 45 44 39 34 31 29 27
48 48 49 47 43 39 37 28 24 25 27 37 43 48 47 38 39 54 64 67 68 69 67 63 58 52 50 45 41 37 32 30 31 33 32 32 29 28 25 23 21 20 16
45 37 33 30 29 23 16 19 30 39 46 53 57 63 64 46 58 60 60 62 65 63 60 55 47 38 33 30 25 22 17 16 17 17 15 12 11 10 9 9 9 7 4
34 28 18 13 15 15 20 36 49 52 55 54 54 51 47 36 45 50 52 52 51 47 41 37 29 22 20 17 13 12 10 10 9 7 5 3 1 360 360 360 359 358 357
20 12 360 359 10 27 33 40 48 45 40 37 34 27 24 27 33 34 30 28 27 22 18 16 12 9 7 7 5 5 5 3 0 357 356 354 353 352 352 350 350 350 348
18 15 9 8 22 18 24 32 27 12 7 3 358 354 354 0 5 6 2 355 354 354 357 0 359 358 358 357 356 356 357 355 352 351 348 346 343 342 340 340 340 340 341
33 27 2 329 327 331 338 335 334 332 332 330 328 331 333 339 343 343 342 342 341 343 347 347 347 347 347 347 347 347 347 346 345 342 339 338 335 333 332 332 332 333 334
7 0 342 330 325 324 324 320 320 318 319 316 316 317 321 325 330 333 335 335 335 335 335 335 335 336 337 338 339 339 339 340 339 337 333 330 327 325 324 322 322 325 328
Height
1427 1430 1433 1436 1439 1443 1446 1448 1451 1454 1456 1459 1463 1466 1469 1473 1478 1481 1484 1487 1491 1495 1499 1501 1504 1508 1510 1512 1515 1516 1518 1519 1518 1517 1520 1521 1519 1520 1520 1520 1521 1521 1521
1424 1429 1432 1434 1437 1440 1443 1446 1449 1451 1453 1456 1459 1462 1465 1469 1474 1477 1479 1482 1485 1487 1491 1495 1497 1500 1501 1504 1505 1506 1508 1511 1511 1509 1510 1509 1509 1507 1508 1509 1508 1508 1507
1423 1427 1430 1433 1436 1438 1441 1443 1446 1449 1451 1453 1456 1459 1462 1466 1469 1472 1474 1477 1480 1483 1486 1488 1490 1492 1492 1494 1495 1496 1498 1501 1502 1500 1495 1500 1499 1499 1495 1493 1493 1493 1491
1422 1426 1428 1432 1434 1437 1439 1441 1443 1446 1449 1452 1454 1457 1459 1462 1465 1468 1470 1472 1474 1476 1478 1479 1481 1482 1483 1485 1487 1488 1489 1490 1490 1489 1488 1484 1486 1486 1485 1480 1477 1478 1475
1419 1423 1427 1429 1432 1434 1436 1438 1441 1444 1447 1449 1451 1453 1456 1458 1461 1462 1463 1465 1466 1466 1467 1468 1469 1469 1470 1473 1476 1476 1478 1479 1479 1478 1476 1475 1472 1472 1470 1470 1465 1463 1460
1418 1421 1425 1426 1428 1431 1433 1435 1437 1439 1441 1443 1446 1447 1450 1451 1449 1451 1453 1454 1455 1456 1456 1456 1456 1456 1457 1459 1462 1464 1467 1468 1466 1464 1462 1460 1460 1459 1459 1457 1455 1452 1445
1415 1421 1423 1425 1426 1428 1430 1431 1433 1435 1437 1439 1440 1441 1442 1442 1442 1443 1445 1446 1447 1447 1447 1446 1445 1445 1447 1447 1447 1447 1448 1450 1451 1450 1446 1445 1443 1444 1444 1441 1439 1436 1430
1421 1425 1424 1425 1424 1426 1426 1428 1429 1431 1432 1434 1435 1436 1435 1436 1436 1436 1437 1438 1439 1440 1440 1439 1436 1435 1436 1435 1434 1433 1433 1434 1433 1433 1430 1429 1428 1424 1425 1425 1424 1422 1416
1426 1425 1425 1423 1423 1424 1424 1425 1425 1427 1428 1429 1430 1430 1430 1430 1429 1429 1429 1430 1431 1429 1429 1426 1422 1423 1424 1424 1423 1423 1424 1423 1416 1417 1415 1413 1409 1406 1406 1408 1406 1408 1405
1422 1425 1424 1422 1421 1422 1423 1422 1422 1424 1425 1427 1427 1426 1425 1426 1425 1423 1422 1422 1422 1421 1420 1417 1414 1413 1412 1413 1413 1412 1412 1410 1406 1403 1401 1399 1397 1393 1394 1396 1397 1397 1397
1427 1426 1425 1423 1422 1422 1423 1420 1421 1423 1426 1426 1425 1425 1425 1423 1422 1420 1418 1416 1415 1414 1412 1410 1407 1406 1405 1403 1402 1402 1400 1399 1398 1397 1396 1395 1393 1392 1390 1386 1389 1386 1386
1427 1426 1426 1426 1424 1423 1424 1423 1423 1424 1426 1426 1425 1425 1424 1422 1420 1418 1417 1415 1415 1413 1411 1410 1408 1405 1404 1400 1397 1394 1393 1395 1393 1395 1394 1397 1394 1393 1393 1396 1386 1388 1393
1431 1428 1428 1428 1427 1426 1426 1426 1426 1427 1427 1427 1427 1427 1427 1426 1424 1423 1421 1418 1416 1414 1413 1411 1410 1408 1406 1404 1404 1402 1400 1397 1398 1398 1397 1400 1400 1400 1400 1397 1393 1396 1396
1434 1432 1432 1431 1429 1429 1428 1429 1430 1430 1430 1430 1430 1431 1431 1429 1427 1427 1424 1423 1421 1419 1418 1416 1415 1413 1411 1410 1409 1409 1407 1407 1405 1404 1404 1405 1405 1404 1403 1399 1398 1397 1398
1437 1435 1433 1432 1433 1433 1433 1434 1434 1434 1436 1435 1435 1435 1432 1431 1431 1430 1428 1426 1424 1423 1422 1421 1420 1419 1417 1416 1415 1411 1411 1411 1409 1407 1406 1405 1403 1403 1404 1401 1400 1402 1402
1441 1438 1437 1437 1438 1439 1440 1439 1440 1440 1439 1439 1438 1437 1436 1435 1435 1433 1431 1429 1428 1427 1426 1424 1421 1420 1419 1418 1417 1416 1414 1411 1409 1410 1408 1406 1406 1406 1404 1403 1403 1402 1402
1445 1443 1442 1442 1444 1444 1444 1444 1444 1443 1442 1442 1440 1440 1439 1438 1436 1435 1433 1432 1431 1430 1428 1425 1424 1423 1422 1420 1419 1418 1416 1414 1414 1409 1409 1408 1407 1407 1407 1405 1404 1405 1402
1449 1446 1444 1445 1445 1446 1446 1446 1446 1446 1444 1444 1443 1441 1441 1440 1438 1437 1435 1434 1432 1429 1428 1427 1427 1426 1424 1422 1422 1420 1419 1417 1415 1415 1412 1410 1409 1409 1408 1407 1405 1405 1404
1450 1447 1445 1446 1447 1447 1448 1448 1447 1447 1446 1445 1443 1442 1442 1441 1439 1437 1435 1434 1432 1431 1430 1430 1429 1428 1426 1425 1423 1422 1421 1419 1417 1416 1414 1413 1412 1410 1408 1408 1407 1405 1404
1450 1448 1448 1448 1449 1449 1450 1450 1449 1447 1447 1445 1443 1442 1441 1441 1440 1439 1437 1435 1434 1433 1432 1431 1430 1430 1428 1427 1425 1424 1423 1421 1419 1417 1416 1414 1413 1411 1410 1409 1407 1406 1404
1449 1449 1450 1450 1450 1450 1450 1449 1448 1448 1447 1446 1444 1443 1443 1443 1442 1439 1437 1436 1435 1434 1433 1432 1431 1430 1429 1427 1426 1425 1423 1421 1419 1418 1416 1414 1413 1412 1410 1409 1407 1406 1404
1450 1450 1450 1450 1450 1450 1450 1449 1448 1448 1447 1446 1445 1445 1445 1444 1442 1440 1439 1438 1436 1435 1433 1433 1432 1430 1428 1427 1425 1423 1422 1420 1419 1417 1416 1414 1413 1412 1410 1409 1407 1406 1404
1451 1450 1451 1450 1450 1450 1450 1450 1449 1449 1448 1448 1448 1447 1446 1444 1442 1440 1439 1438 1436 1435 1433 1432 1430 1429 1427 1425 1424 1422 1421 1419 1418 1416 1415 1413 1412 1411 1409 1408 1407 1405 1404
1451 1451 1452 1451 1451 1451 1451 1450 1449 1449 1449 1449 1448 1447 1446 1444 1442 1440 1438 1437 1435 1434 1432 1430 1429 1427 1425 1424 1422 1421 1420 1418 1417 1415 1414 1412 1411 1410 1408 1407 1406 1404 1403
1453 1453 1452 1452 1451 1451 1451 1450 1449 1448 1448 1448 1447 1445 1444 1442 1440 1438 1436 1434 1433 1431 1429 1428 1426 1425 1424 1422 1420 1419 1418 1416 1415 1414 1412 1411 1410 1408 1407 1406 1405 1403 1402
1452 1452 1451 1451 1451 1450 1449 1448 1448 1447 1446 1446 1445 1443 1441 1439 1437 1435 1433 1432 1430 1429 1427 1425 1424 1423 1421 1419 1418 1417 1416 1415 1413 1412 1411 1409 1408 1407 1406 1404 1403 1402 1400